Location: Newark
(45.4422°N, 16.2769°E)
Time: 20:56:36
(UTC+00:00)

Tiros 1 despin weight - Pass Details

Date: 17 December 2019
Orbit: 594 x 642 km, 48.2° (Epoch: 26 January)

Event Time Altitude Azimuth Distance (km) Brightness Sun altitude
Rises 08:28:36 0° 279° (W) 2,849 ? 14.0°
Reaches altitude 10° 08:32:28 10° 246° (WSW) 1,931 ? 14.4°
Maximum altitude 08:33:52 11° 227° (SW) 1,839 ? 14.5°
Drops below altitude 10° 08:35:15 10° 208° (SSW) 1,922 ? 14.6°
Sets 08:39:05 0° 175° (S) 2,813 ? 15.0°
